Location: Pedholt
(56.0260°N, 10.2097°E)
Time: 04:14:57
(UTC+00:00)

Cosmos 1818 - Pass Details

Date: 14 July 2020
Orbit: 777 x 796 km, 65.0° (Epoch: 14 August)

Event Time Altitude Azimuth Distance (km) Brightness Sun altitude
Rises 01:13:29 0° 310° (NW) 3,309 7.0 -9.0°
Reaches altitude 10° 01:15:55 10° 312° (NW) 2,377 6.3 -8.9°
Maximum altitude 01:21:24 82° 40° (NE) 812 3.7 -8.5°
Drops below altitude 10° 01:26:52 10° 129° (SE) 2,366 5.9 -8.2°
Sets 01:29:17 0° 130° (SE) 3,292 6.7 -8.0°
